[[{"header":{"parameterUnit":"m.s-1","parameterCategory":1,"la1":30.2991,"la2":30.254,"lo1":-89.0895,"lo2":-89.0444,"dy":0.0017,"dx":0.0017,"nx":28,"ny":28,"refTime":"2025-07-23T09:00:00:Z","depth":0,"parameterNumber":2,"parameterNumberName":"U-component_of_WINDS"},"data":[0,0,0,0,0,0,0,0,0,0,0,0,0,0,0,0,0,0,0,0,0,0,0,0,0,0,0,0,0,0,0,0,0,0,0,0,0,0,0,0,0,0,0,0,0,0,0,0,0,0,0,0,0,0,0,0,0,0,-6.8506,-6.8507,0,-6.8547,-6.8548,-6.8548,-6.8434,-6.843,-6.8427,-6.8424,-6.8462,-6.8466,-6.847,0,0,0,0,0,0,0,0,0,0,0,0,0,-6.8326,-6.833,-6.8506,-6.8507,-6.8507,-6.8547,-6.8548,-6.8548,-6.8435,-6.843,-6.8426,-6.8422,-6.846,-6.8465,-6.847,0,0,0,0,0,0,0,0,0,0,0,0,0,-6.8389,-6.8331,-6.8506,-6.8455,-6.8451,-6.8547,-6.8548,-6.8548,-6.8435,-6.843,-6.8425,-6.842,-6.8459,-6.8465,-6.8471,-6.8617,0,0,-6.8491,-6.8494,0,0,0,0,0,0,0,0,-6.8386,-6.8396,-6.8462,-6.8459,-6.8455,-6.848,-6.8498,-6.8571,-6.8437,-6.8441,-6.8424,-6.8417,-6.8472,-6.8477,-6.8496,-6.8618,-6.862,-6.8491,-6.8495,-6.8498,-6.85,0,0,0,0,0,0,0,-6.8382,-6.8394,-6.8522,-6.8463,-6.8459,-6.843,-6.8433,-6.8511,-6.8486,-6.8441,-6.8432,-6.8439,-6.8469,-6.849,-6.8496,-6.862,-6.8491,-6.8497,-6.8501,-6.8503,-6.8864,-6.8869,0,0,0,0,0,0,-6.8384,-6.8391,-6.8521,-6.8523,-6.8407,-6.8437,-6.8441,-6.8477,-6.8484,-6.8481,-6.8444,-6.8434,-6.8482,-6.8489,-6.8497,-6.8667,-6.8498,-6.8504,-6.8508,-6.8858,-6.8865,-6.8871,0,0,0,0,0,0,-6.8381,-6.8397,-6.8519,-6.8455,-6.8468,-6.8446,-6.8488,-6.8481,-6.8502,-6.8487,-6.8481,-6.847,-6.8478,-6.8488,-6.8588,-6.8666,-6.8507,-6.8513,-6.8852,-6.886,-6.8868,-6.9008,0,0,0,0,0,0,-6.8376,-6.8397,-6.8452,-6.8457,-6.8472,-6.8611,-6.8493,-6.8485,-6.8514,-6.8501,-6.851,-6.8507,-6.8474,-6.8579,-6.8594,-6.8672,-6.8518,-6.8844,-6.8856,-6.8866,-6.8997,-6.9021,-6.9041,0,0,0,0,0,-6.837,-6.8489,-6.8456,-6.8472,-6.8541,-6.8616,-6.8624,-6.8585,-6.8521,-6.8576,-6.8566,-6.8506,-6.8656,-6.859,-6.8606,-6.8688,-6.8839,-6.8852,-6.8865,-6.8987,-6.9016,-6.9041,0,0,0,0,0,0,-6.8492,-6.8489,-6.8451,-6.8576,-6.8597,-6.8596,-6.8664,-6.8618,-6.8657,-6.8643,-6.8593,-6.8596,-6.8705,-6.8706,-6.8633,-6.8829,-6.8736,-6.8753,-6.8823,-6.8851,-6.8873,-6.8869,-6.8523,0,0,0,0,0,-6.8533,-6.8595,-6.8589,-6.8699,-6.8712,-6.8687,-6.8718,-6.8687,-6.8706,-6.8714,-6.8711,-6.8731,-6.8783,-6.8817,-6.8864,-6.8998,-6.8997,-6.9062,-6.9084,-6.9102,-6.9117,-6.9187,-6.9215,-6.8914,-6.8914,-6.8913,0,0,-6.8619,-6.8625,-6.8667,-6.8723,-6.8736,-6.88,-6.8695,-6.8767,-6.8813,-6.8724,-6.8818,-6.8818,-6.8837,-6.8954,-6.9006,-6.8959,-6.92,-6.9119,-6.9134,-6.9138,-6.9203,-6.9231,-6.9257,-6.8922,-6.8921,-6.8919,0,0,-6.8807,-6.8819,-6.8912,-6.8928,-6.8949,-6.8932,-6.8955,-6.8962,-6.8959,-6.9053,-6.8988,-6.9042,-6.9132,-6.9148,-6.9168,-6.9366,-6.9312,-6.9383,-6.9498,-6.9567,-6.9591,-6.9612,-6.9681,-6.9706,-6.9398,-6.9398,-6.9398,0,-6.891,-6.9005,-6.8965,-6.9042,-6.9068,-6.8993,-6.9086,-6.9103,-6.9139,-6.9158,-6.9106,-6.9218,-6.9225,-6.9345,-6.9394,-6.9413,-6.9436,-6.938,-6.9591,-6.9612,-6.963,-6.9695,-6.9722,-6.9406,-6.9405,-6.9404,-6.9404,0,-6.913,-6.9197,-6.9269,-6.9307,-6.9342,-6.9427,-6.9399,-6.9439,-6.9406,-6.9394,-6.9491,-6.9499,-6.9545,-6.9572,-6.954,-6.9688,-6.9658,-6.96,-6.9505,-6.9668,-6.9728,-6.9753,-6.9418,-6.9415,-6.9413,-6.9411,0,0,-6.9392,-6.9409,-6.9436,-6.9453,-6.9472,-6.9523,-6.9604,-6.9652,-6.9686,-6.9714,-6.978,-6.986,-6.9806,-6.9829,-6.9798,-6.9859,-7.0014,-6.9793,-6.9793,-6.9832,-7.0176,-7.0218,-7.0248,-6.998,-6.9985,-6.9988,-7.0174,0,-6.9576,-6.9717,-6.9685,-6.9823,-6.9884,-6.9815,-6.9886,-6.9905,-6.9898,-6.9947,-6.9938,-6.9995,-6.9921,-6.9934,-6.9992,-6.9983,-7.0082,-6.997,-7.0039,-7.0042,-7.0033,-7.028,-7.0324,-7.0499,-7.0198,-7.0202,-7.0204,0,-6.9809,-6.9848,-6.9993,-7.0004,-7.0028,-7.0093,-7.0133,-7.0183,-7.0203,-7.0193,-7.0221,-7.0179,-7.0258,-7.0166,-7.0274,-7.0199,-7.0226,-7.0226,-7.0232,-7.0234,-7.0131,-7.0287,-7.0554,-7.0579,-7.0241,-7.0238,-7.0236,0,-6.9984,-7.0072,-7.017,-7.0187,-7.0202,-7.0249,-7.0258,-7.0273,-7.0304,-7.034,-7.036,-7.0405,-7.0428,-7.0464,-7.0434,-7.037,-7.0547,-7.0452,-7.0539,-7.054,-7.0577,-7.0574,-7.085,-7.0599,-7.0599,-7.0598,-7.0598,0,-7.0191,-7.0282,-7.0249,-7.0309,-7.0409,-7.0372,-7.0471,-7.0471,-7.0486,-7.0544,-7.0488,-7.0544,-7.0503,-7.0555,-7.0533,-7.0625,-7.0637,-7.063,-7.0622,-7.0634,-7.0634,-7.0648,-7.0634,-7.0605,-7.0604,-7.0602,-7.0601,0,-7.0401,-7.0383,-7.0486,-7.0493,-7.0497,-7.057,-7.0576,-7.0631,-7.0621,-7.0695,-7.071,-7.0693,-7.0752,-7.0727,-7.0788,-7.0773,-7.0892,-7.0869,-7.0885,-7.0878,-7.0966,-7.0957,-7.1257,-7.1294,-7.1023,-7.1025,-7.1027,0,-7.0534,-7.0602,-7.0618,-7.0654,-7.0667,-7.0725,-7.0757,-7.0723,-7.0759,-7.0789,-7.084,-7.0895,-7.0935,-7.1032,-7.1024,-7.1071,-7.1048,-7.115,-7.1054,-7.1063,-7.1046,-7.1042,-7.1048,-7.1168,-7.1171,-7.1174,-7.1176,0,-7.077,-7.0758,-7.0807,-7.0854,-7.0894,-7.0928,-7.0958,-7.099,-7.0958,-7.1,-7.106,-7.1093,-7.1157,-7.121,-7.1252,-7.1259,-7.1212,-7.1207,-7.1229,-7.1239,-7.1245,-7.1241,-7.0935,-7.1199,-7.1197,-7.1195,-7.1194,-7.1193,-7.0943,-7.1001,-7.1021,-7.1078,-7.1097,-7.1127,-7.1179,-7.1177,-7.1227,-7.1277,-7.1254,-7.1323,-7.1343,-7.1395,-7.1409,-7.1462,-7.1421,-7.1454,-7.1462,-7.1469,-7.148,-7.124,-7.1469,-7.1469,-7.1468,-7.1468,-7.1467,0,-7.1174,-7.1185,-7.1238,-7.1282,-7.1326,-7.1281,-7.1312,-7.1352,-7.1414,-7.1437,-7.148,-7.1549,-7.1602,-7.16,-7.1648,-7.1691,-7.167,-7.1704,-7.1699,-7.1701,-7.1514,-7.1489,-7.172,-7.172,-7.172,-7.172,-7.172,-7.172,-7.1299,-7.1394,-7.1386,-7.149,-7.1499,-7.1568,-7.159,-7.1616,-7.1635,-7.1715,-7.1759,-7.1758,-7.1771,-7.1821,-7.1867,-7.1864,-7.1884,-7.1926,-7.1915,-7.174,-7.1715,-7.1691,-7.1667,-7.1931,-7.1931,-7.2097,-7.2099,-7.21]},{"header":{"parameterUnit":"m.s-1","parameterCategory":1,"la1":30.2991,"la2":30.254,"lo1":-89.0895,"lo2":-89.0444,"dy":0.0017,"dx":0.0017,"nx":28,"ny":28,"refTime":"2025-07-23T09:00:00:Z","depth":0,"parameterNumber":3,"parameterNumberName":"V-component_of_WINDS"},"data":[0,0,0,0,0,0,0,0,0,0,0,0,0,0,0,0,0,0,0,0,0,0,0,0,0,0,0,0,0,0,0,0,0,0,0,0,0,0,0,0,0,0,0,0,0,0,0,0,0,0,0,0,0,0,0,0,0,0,1.0079,1.008,0,1.0221,1.0223,1.0224,1.0333,1.0334,1.0335,1.0336,1.0484,1.0487,1.049,0,0,0,0,0,0,0,0,0,0,0,0,0,0.9904,0.9907,1.0079,1.008,1.0082,1.0221,1.0223,1.0225,1.0333,1.0334,1.0335,1.0336,1.0483,1.0486,1.049,0,0,0,0,0,0,0,0,0,0,0,0,0,1.0006,0.9907,1.0078,1.0153,1.0161,1.022,1.0223,1.0225,1.0332,1.0334,1.0335,1.0337,1.0482,1.0486,1.049,1.0488,0,0,1.0504,1.0506,0,0,0,0,0,0,0,0,1.0,1.0013,1.014,1.0148,1.0157,1.0261,1.0216,1.0314,1.0332,1.0267,1.0336,1.0338,1.0408,1.0419,1.0443,1.0495,1.0502,1.0505,1.0507,1.0509,1.0511,0,0,0,0,0,0,0,0.9993,1.0007,1.0135,1.0142,1.0152,1.018,1.0196,1.0235,1.0328,1.0273,1.0281,1.0297,1.0413,1.0438,1.0447,1.0504,1.0504,1.0508,1.0511,1.0513,1.0565,1.0563,0,0,0,0,0,0,0.9974,1.0001,1.0131,1.0139,1.0081,1.0182,1.02,1.0226,1.0328,1.0345,1.0295,1.0301,1.043,1.0441,1.0452,1.0458,1.0509,1.0513,1.0516,1.0566,1.0564,1.0563,0,0,0,0,0,0,0.997,0.9985,1.0125,1.0072,1.0092,1.0184,1.0211,1.0228,1.0253,1.0344,1.0362,1.0303,1.0431,1.0446,1.0479,1.0465,1.0516,1.052,1.0568,1.0565,1.0564,1.0468,0,0,0,0,0,0,0.9964,0.9982,0.9981,1.0071,1.0095,1.0147,1.0211,1.023,1.026,1.0269,1.0356,1.0372,1.0434,1.0472,1.0483,1.0472,1.0523,1.0569,1.0567,1.0564,1.0473,1.0463,1.0455,0,0,0,0,0,0.9958,0.9949,0.9981,0.9996,1.0095,1.0146,1.016,1.023,1.0258,1.0259,1.0318,1.0369,1.0464,1.0474,1.0488,1.0478,1.057,1.0567,1.0564,1.0477,1.0465,1.0455,0,0,0,0,0,0,0.9855,0.9962,0.9999,1.0018,1.0072,1.0164,1.0167,1.0215,1.0262,1.0269,1.0355,1.0374,1.0398,1.0442,1.045,1.0483,1.0524,1.0524,1.0453,1.0442,1.0433,1.0422,1.0527,0,0,0,0,0,0.9835,0.9866,0.9959,0.9967,0.9992,1.0075,1.01,1.0149,1.0209,1.0233,1.0294,1.0351,1.0395,1.0421,1.0465,1.048,1.0502,1.048,1.0471,1.0463,1.0462,1.0475,1.0467,1.0553,1.0553,1.0553,0,0,0.9793,0.9856,0.987,0.9948,0.9996,1.0028,1.0093,1.0124,1.0149,1.0238,1.0273,1.032,1.0389,1.0413,1.0427,1.0451,1.0443,1.0459,1.0452,1.0456,1.0471,1.0463,1.0455,1.0551,1.0551,1.0552,0,0,0.9734,0.9783,0.9797,0.9844,0.9915,0.997,0.9973,1.0059,1.0094,1.013,1.0197,1.0229,1.0301,1.0348,1.0382,1.0342,1.0392,1.0354,1.0307,1.0318,1.0311,1.0306,1.0293,1.0287,1.0353,1.0353,1.0353,0,0.9673,0.9723,0.9798,0.9825,0.9858,0.994,0.9955,0.9997,1.0079,1.0101,1.0126,1.0219,1.0271,1.0308,1.0299,1.0323,1.033,1.0345,1.0306,1.0301,1.0297,1.0286,1.0281,1.0348,1.0348,1.0349,1.0349,0,0.9646,0.968,0.9682,0.9759,0.9793,0.9814,0.9893,0.9918,0.9965,1.0018,1.0056,1.0122,1.0182,1.0194,1.0241,1.0239,1.0251,1.029,1.0333,1.0283,1.0274,1.027,1.0341,1.0342,1.0344,1.0345,0,0,0.9525,0.9644,0.9644,0.968,0.9766,0.9794,0.982,0.9878,0.9899,0.9954,0.9978,1.0038,1.0075,1.0113,1.0166,1.0176,1.0142,1.0214,1.0217,1.0199,1.0146,1.0116,1.011,1.0176,1.0175,1.0175,1.014,0,0.9479,0.9528,0.9597,0.9624,0.9657,0.9736,0.9759,0.9815,0.9865,0.9902,0.9959,1.0,1.0045,1.0069,1.0082,1.0143,1.0133,1.0147,1.0201,1.0202,1.0181,1.0105,1.0074,1.0038,1.0137,1.0137,1.0136,0,0.9432,0.9482,0.9512,0.9597,0.9613,0.9632,0.9692,0.9726,0.9792,0.9828,0.9871,0.9928,0.9961,1.0,1.0048,1.0056,1.0083,1.0116,1.0116,1.0124,1.0166,1.0111,1.0028,1.0023,1.0131,1.0132,1.0132,0,0.9342,0.9417,0.9445,0.9474,0.9573,0.9585,0.9627,0.9694,0.9725,0.9778,0.98,0.9856,0.9887,0.993,1.0002,1.0023,1.0042,1.0087,1.0075,1.0073,1.0075,1.0073,0.9995,1.0091,1.0091,1.0091,1.0091,0,0.9284,0.9299,0.9406,0.9423,0.9443,0.9523,0.9542,0.9591,0.9651,0.968,0.9752,0.9779,0.9872,0.9909,0.9966,0.9998,1.0011,1.0042,1.0057,1.0036,1.0032,1.0055,1.0059,1.009,1.009,1.009,1.009,0,0.9186,0.9258,0.9294,0.9385,0.9408,0.9419,0.9498,0.9519,0.9574,0.9611,0.9624,0.9712,0.976,0.9836,0.9907,0.9945,0.9968,0.9992,0.9945,0.9954,0.9937,0.9938,0.987,0.9866,0.9964,0.9963,0.9962,0,0.9144,0.9158,0.9251,0.9275,0.9315,0.9353,0.9386,0.9466,0.9497,0.9574,0.9586,0.964,0.9687,0.9761,0.9832,0.9887,0.9914,0.9887,0.9923,0.9901,0.9915,0.9913,0.9915,0.9878,0.9876,0.9875,0.9874,0,0.9063,0.9098,0.9142,0.9198,0.9234,0.9283,0.9335,0.9351,0.9443,0.9475,0.9525,0.9561,0.9634,0.9688,0.9753,0.9799,0.9852,0.9862,0.9863,0.9841,0.9813,0.9829,0.9922,0.9863,0.9865,0.9865,0.9866,0.9866,0.8993,0.9009,0.9077,0.9124,0.9171,0.9219,0.9243,0.9301,0.9344,0.9409,0.9455,0.9502,0.957,0.9664,0.9706,0.9746,0.9769,0.9769,0.9769,0.9768,0.9761,0.9807,0.9758,0.9759,0.9759,0.9759,0.976,0,0.8916,0.8964,0.9006,0.9076,0.9113,0.916,0.922,0.9249,0.9289,0.9348,0.9393,0.9452,0.9504,0.9579,0.9638,0.9656,0.9682,0.9668,0.9668,0.9678,0.9736,0.973,0.9646,0.9646,0.9646,0.9646,0.9646,0.9646,0.8881,0.8911,0.8954,0.901,0.9059,0.9105,0.9136,0.9181,0.9228,0.929,0.9333,0.9382,0.9448,0.9512,0.9563,0.9584,0.9603,0.9582,0.961,0.9663,0.9674,0.9683,0.9679,0.9585,0.9585,0.9549,0.9549,0.9549]}]]